Location: Gad�tanya
(48.0500°N, 20.8500°E)
Time: 10:33:09
(UTC+00:00)

Cosmos 44 Rocket - Pass Details

Date: 05 July 2020
Orbit: 650 x 740 km, 65.1° (Epoch: 14 August)

Event Time Altitude Azimuth Distance (km) Brightness Sun altitude
Exits shadow 22:51:43 24° 127° (SE) 1,352 4.5 -19.2°
Maximum altitude 22:52:21 25° 114° (ESE) 1,328 4.5 -19.2°
Drops below altitude 10° 22:56:10 10° 59° (ENE) 2,090 6.2 -19.2°
Sets 22:58:50 0° 47° (NE) 3,021 7.3 -19.2°
